N4DCI Weather Reports


time (UTC)temp
C
wind
direction
speed
KPH
gust
KPH
rain 1hr
cm
rain 24hr
cm
rain mn
cm
humidity
%
barometer
mb
20260509021505 12 343 0.0 0.0 0.00 0.00 0.00 78 1017.3
20260509020005 13 343 0.0 0.0 0.00 0.00 0.00 77 1017.4
20260509014506 13 344 0.0 0.0 0.00 0.00 0.00 75 1017.3
20260509013006 13 45 0.0 3.2 0.00 0.00 0.00 74 1016.8
20260509011505 13 59 0.0 0.0 0.00 0.00 0.00 73 1016.9
20260509010005 14 49 3.2 6.4 0.00 0.00 0.00 71 1016.7
20260509004505 14 30 0.0 0.0 0.00 0.00 0.00 70 1016.7
20260509003005 14 33 0.0 6.4 0.00 0.00 0.00 68 1016.7
20260509001505 15 14 3.2 6.4 0.00 0.00 0.00 66 1016.4
20260509000006 15 80 1.6 6.4 0.00 0.00 0.00 67 1016.4
20260508234506 15 299 0.0 8.0 0.00 0.00 0.00 66 1016.2
20260508233005 15 30 3.2 12.9 0.00 0.00 0.00 66 1016.3
20260508231505 16 355 4.8 11.3 0.00 0.00 0.00 66 1016.3
20260508230004 16 17 4.8 9.7 0.00 0.00 0.00 66 1016.3
20260508224505 16 61 3.2 14.5 0.00 0.00 0.00 64 1016.4
20260508223005 16 31 3.2 12.9 0.00 0.00 0.00 66 1016.5
20260508221500 16 30 4.8 14.5 0.00 0.00 0.00 64 1016.4
20260508220006 16 313 3.2 16.1 0.00 0.00 0.00 63 1016.4
20260508214505 16 50 9.7 17.7 0.00 0.00 0.00 62 1016.4
20260508213005 16 50 6.4 19.3 0.00 0.00 0.00 61 1016.4
20260508211505 17 5 6.4 14.5 0.00 0.00 0.00 61 1016.4
20260508210005 17 43 6.4 14.5 0.00 0.00 0.00 60 1016.2
20260508204505 17 355 1.6 9.7 0.00 0.00 0.00 60 1016.3
20260508201505 18 355 4.8 12.9 0.00 0.00 0.00 56 1016.5
20260508200006 18 42 6.4 12.9 0.00 0.00 0.00 58 1016.6
20260508194505 18 44 8.0 14.5 0.00 0.00 0.00 57 1017.0
20260508193005 17 145 1.6 4.8 0.00 0.00 0.00 59 1017.2
20260508191505 18 32 4.8 19.3 0.00 0.00 0.00 58 1017.5
20260508190006 17 28 6.4 14.5 0.00 0.00 0.00 58 1017.6
20260508184505 17 80 4.8 12.9 0.00 0.00 0.00 58 1018.0
20260508183005 17 52 6.4 16.1 0.00 0.00 0.00 58 1018.0
20260508181505 17 228 3.2 12.9 0.00 0.00 0.00 57 1018.3
20260508180005 17 19 8.0 14.5 0.00 0.00 0.00 60 1018.3
20260508174500 17 50 3.2 17.7 0.00 0.00 0.00 56 1018.5
20260508173005 17 205 4.8 9.7 0.00 0.00 0.00 58 1018.5
20260508171500 17 228 6.4 14.5 0.00 0.00 0.00 58 1018.7
20260508170005 17 76 3.2 9.7 0.00 0.00 0.00 59 1019.0
20260508163004 17 9 1.6 12.9 0.00 0.00 0.00 63 1019.4
20260508161504 16 56 3.2 9.7 0.00 0.00 0.00 63 1019.7
20260508160006 16 225 4.8 8.0 0.00 0.00 0.00 60 1019.8
20260508154504 16 246 1.6 14.5 0.00 0.00 0.00 60 1019.9
20260508153005 16 42 3.2 8.0 0.00 0.00 0.00 58 1020.0
20260508151505 16 211 1.6 6.4 0.00 0.00 0.00 54 1020.1
20260508150005 16 56 4.8 12.9 0.00 0.00 0.00 58 1020.1
20260508143000 15 188 3.2 6.4 0.00 0.00 0.00 60 1020.1
20260508141500 15 85 1.6 4.8 0.00 0.00 0.00 60 1020.2
20260508140006 13 203 1.6 4.8 0.00 0.00 0.00 65 1020.3
20260508133004 12 139 1.6 6.4 0.00 0.05 0.00 72 1020.4
20260508131505 11 108 0.0 6.4 0.00 0.05 0.00 77 1020.3
20260508130006 10 196 1.6 4.8 0.00 0.05 0.00 79 1020.1
20260508124500 10 146 1.6 6.4 0.00 0.15 0.00 82 1020.1
20260508123000 9 90 0.0 6.4 0.00 0.15 0.00 86 1020.0
20260508121504 8 102 1.6 6.4 0.00 0.15 0.00 89 1019.8
20260508120004 7 122 1.6 4.8 0.00 0.33 0.00 92 1019.7
20260508113000 7 98 0.0 3.2 0.00 0.33 0.00 92 1019.3
20260508111504 7 98 0.0 0.0 0.00 0.33 0.00 92 1018.8
20260508110006 6 98 0.0 0.0 0.00 0.33 0.00 92 1018.8
20260508104504 6 97 0.0 1.6 0.00 0.48 0.00 91 1018.6
20260508103005 6 97 0.0 0.0 0.00 0.48 0.00 91 1018.4
20260508101459 7 97 0.0 0.0 0.00 0.48 0.00 91 1018.3
20260508100005 7 97 0.0 0.0 0.00 0.51 0.00 90 1018.0
20260508091504 7 96 0.0 1.6 0.00 0.51 0.00 89 1017.6
20260508084504 8 96 1.6 3.2 0.00 0.51 0.00 88 1017.5
20260508083004 8 123 0.0 4.8 0.00 0.51 0.00 88 1017.5
20260508081505 8 136 0.0 3.2 0.00 0.51 0.00 88 1017.4
20260508080005 8 116 1.6 4.8 0.00 0.51 0.00 88 1017.1
20260508074504 9 46 1.6 4.8 0.00 0.64 0.00 87 1017.2
20260508073005 9 73 4.8 16.1 0.00 0.64 0.00 87 1017.0
20260508071504 9 94 4.8 12.9 0.00 0.64 0.00 87 1016.9
20260508070005 9 126 4.8 9.7 0.00 0.64 0.00 87 1016.8
20260508064505 9 355 0.0 12.9 0.00 0.64 0.00 87 1016.5
20260508061459 9 103 1.6 8.0 0.00 0.64 0.00 88 1016.5
20260508054505 9 78 0.0 1.6 0.00 0.81 0.00 86 1016.9
20260508053005 9 69 0.0 4.8 0.00 0.81 0.00 85 1016.9
20260508051504 10 105 3.2 8.0 0.00 0.81 0.00 84 1016.8
20260508044505 10 36 1.6 9.7 0.00 1.14 0.00 84 1016.7
20260508043005 10 67 0.0 3.2 0.00 1.14 0.00 84 1016.7
20260508041505 10 89 1.6 3.2 0.00 1.14 0.00 83 1016.7
20260508040005 10 47 1.6 8.0 0.00 1.14 1.14 83 1016.6
20260508034505 10 57 3.2 4.8 0.00 1.14 1.14 83 1016.5
20260508033005 10 85 1.6 8.0 0.00 1.14 1.14 83 1016.7
20260508031505 10 43 1.6 6.4 0.00 1.14 1.14 83 1016.7
20260508024505 11 79 1.6 6.4 0.00 1.30 1.14 82 1016.4
20260508023006 11 65 3.2 9.7 0.00 1.30 1.14 82 1016.1